Weather in Kavos

Greece     39°23′02″N   20°06′44″E
temp.,
°C
wind,
m/s
gust,
m/s
humid.,
%
clouds,
%
prec.,
mm/h
press.,
hPa
HPBL,
m
24 february, wed
wed2423:00+15nne12730 0.0 103172
02:00+15e11690 0.0 103186
05:00+15e22620 0.0 1031130
08:00+14ene22580 0.0 1030130
11:00+14ese11500 0.0 103098
14:00+15wsw11520 0.0 1030108
17:00+16wsw22610 0.0 1029144
20:00+15nne22630 0.0 103094
25 february, thu
thu2523:00+16e11680 0.0 103125
02:00+15e33650 0.0 103192
05:00+15ene33570 0.0 1031134
08:00+14e33560 0.0 1031148
11:00+15ese22530 0.0 1032158
14:00+16w22521 0.0 1031147
17:00+16nw346471 0.0 1030302
20:00+15n447235 0.0 1030257
26 february, fri
fri2623:00+15n34700 0.0 1030219
02:00+15nne22680 0.0 1030159
05:00+15e22630 0.0 1028155
08:00+14e33610 0.0 1028155
11:00+15ese22600 0.0 1028159
14:00+16s12670 0.0 1026175
17:00+16wnw22680 0.0 1025194
20:00+15n22700 0.0 1024161
27 february, sat
sat2723:00+15ene01700 0.0 102495
02:00+15ese22700 0.0 1024182
05:00+15ese01700 0.0 1022169
08:00+14ese22740 0.0 1022203
11:00+15ese11730 0.0 1022168
14:00+15wsw33760 0.0 1021306
17:00+15nnw23750 0.0 1020202
20:00+15n12820 0.0 1020113
28 february, sun
sun2823:00+15ene12790 0.0 1021148
02:00+15ese11770 0.0 1021148
05:00+14e22780 0.0 1021153
08:00+14ene11750 0.0 1021129
11:00+14se11720 0.0 1022108
14:00+15sw22710 0.0 1023163
17:00+16w237613 0.1 1023191
20:00+16ese117935 0.1 102552